GW2040 Weather Reports


time (UTC)temp
C
wind
direction
speed
KPH
gust
KPH
rain 1hr
cm
rain 24hr
cm
rain mn
cm
humidity
%
barometer
mb
20260506213246 23 310 12.9 27.4 0.00 0.00 0.00 58 1019.2
20260506211238 23 294 6.4 12.9 0.00 0.00 0.00 58 1019.5
20260506205221 23 298 14.5 17.7 0.00 0.00 0.00 59 1019.8
20260506204449 22 291 11.3 16.1 0.00 0.00 0.00 59 1019.7
20260506202421 22 313 9.7 12.9 0.00 0.00 0.00 60 1020.0
20260506200421 22 300 12.9 14.5 0.00 0.00 0.00 60 1020.1
20260506195620 22 317 4.8 12.9 0.00 0.00 0.00 61 1020.4
20260506193620 21 302 9.7 17.7 0.00 0.00 0.00 62 1020.4
20260506191619 20 307 6.4 11.3 0.00 0.00 0.00 64 1020.6
20260506185725 20 346 4.8 12.9 0.00 0.00 0.00 65 1020.8
20260506183724 19 320 3.2 6.4 0.00 0.00 0.00 66 1020.9
20260506181620 18 319 6.4 11.3 0.00 0.00 0.00 67 1021.0
20260506175622 18 265 3.2 6.4 0.00 0.00 0.00 68 1021.1
20260506173616 17 259 6.4 6.4 0.00 0.00 0.00 69 1021.2
20260506171620 17 3 3.2 4.8 0.00 0.00 0.00 70 1021.4
20260506165827 16 348 1.6 4.8 0.00 0.00 0.00 72 1021.2
20260506163842 16 330 1.6 1.6 0.00 0.00 0.00 73 1021.4
20260506163014 16 280 1.6 3.2 0.00 0.00 0.00 74 1021.5
20260506160922 15 300 6.4 9.7 0.00 0.00 0.00 75 1021.5
20260506160319 15 300 0.0 1.6 0.00 0.00 0.00 75 1021.5
20260506154325 15 310 0.0 1.6 0.00 0.00 0.00 76 1021.3
20260506152331 15 352 1.6 3.2 0.00 0.00 0.00 76 1021.4
20260506150324 14 344 0.0 3.2 0.00 0.00 0.00 77 1021.2
20260506144324 14 344 1.6 1.6 0.00 0.00 0.00 78 1021.3
20260506143417 14 344 1.6 3.2 0.00 0.00 0.00 78 1021.3
20260506141417 13 343 0.0 1.6 0.00 0.00 0.00 78 1021.1
20260506135421 13 343 1.6 3.2 0.00 0.00 0.00 78 1020.9
20260506133424 13 0.0 0.0 0.00 0.00 0.00 78 1020.5
20260506131438 13 0.0 0.0 0.00 0.00 0.00 78 1020.7
20260506125218 13 322 1.6 1.6 0.00 0.00 0.00 78 1020.4
20260506123240 13 0.0 0.0 0.00 0.00 0.00 78 1020.1
20260506121220 13 321 0.0 1.6 0.00 0.00 0.00 78 1020.2
20260506115221 13 0.0 0.0 0.00 0.00 0.00 77 1020.2
20260506113240 13 336 1.6 3.2 0.00 0.00 0.00 78 1019.9
20260506112845 13 0.0 0.0 0.00 0.00 0.00 78 1020.0
20260506111725 13 0.0 0.0 0.00 0.00 0.00 78 1019.9
20260506105725 13 0.0 0.0 0.00 0.00 0.00 78 1019.7
20260506103722 13 0.0 0.0 0.00 0.00 0.00 78 1019.6
20260506101722 13 0.0 0.0 0.00 0.00 0.00 77 1019.7
20260506095721 13 0.0 0.0 0.00 0.00 0.00 77 1019.7
20260506094817 13 336 0.0 1.6 0.00 0.00 0.00 77 1019.6
20260506092824 13 0.0 0.0 0.00 0.00 0.00 76 1019.6
20260506091907 14 0.0 0.0 0.00 0.00 0.00 76 1019.5
20260506090727 -17 0.0 0.0 0.00 0.00 0.00 1019.6
20260506090025 14 336 1.6 3.2 0.00 0.00 0.00 76 1020.0
20260506084845 14 0.0 0.0 0.00 0.00 0.00 75 1019.5
20260506083825 14 336 0.0 1.6 0.00 0.00 0.00 75 1019.5
20260506083326 14 336 0.0 1.6 0.00 0.00 0.00 75 1019.6
20260506081327 14 0.0 0.0 0.00 0.00 0.00 75 1019.8
20260506073345 14 335 3.2 4.8 0.00 0.00 0.00 75 1019.6
20260506071204 15 0.0 0.0 0.00 0.00 0.00 74 1019.1
20260506070127 15 304 0.0 1.6 0.00 0.00 0.00 74 1019.3
20260506062309 15 308 4.8 11.3 0.00 0.00 0.00 74 1019.2
20260506060225 15 312 1.6 6.4 0.00 0.00 0.00 74 1019.0
20260506050321 15 316 4.8 9.7 0.00 0.00 0.00 73 1018.5
20260506044321 15 298 6.4 9.7 0.00 0.00 0.00 72 1018.0
20260506043126 15 307 9.7 17.7 0.00 0.00 0.00 72 1018.3
20260506041121 15 323 3.2 4.8 0.00 0.00 0.00 72 1018.1
20260506040118 15 317 3.2 12.9 0.00 0.00 0.00 72 1017.9
20260506034120 15 309 4.8 6.4 0.00 0.00 0.00 71 1017.5
20260506032116 15 299 6.4 12.9 0.00 0.00 0.00 71 1017.0
20260506031025 16 332 6.4 16.1 0.00 0.00 0.00 70 1017.0
20260506025029 16 310 9.7 20.9 0.00 0.00 0.00 70 1017.0
20260506023022 16 330 6.4 11.3 0.00 0.00 0.00 69 1016.9
20260506022026 16 330 1.6 1.6 0.00 0.00 0.00 69 1016.5
20260506020820 16 299 6.4 11.3 0.00 0.00 0.00 69 1016.7
20260506014823 16 323 4.8 4.8 0.00 0.00 0.00 68 1016.4
20260506014030 16 301 4.8 9.7 0.00 0.00 0.00 68 1016.5
20260506012020 16 319 3.2 9.7 0.00 0.00 0.00 68 1016.5
20260506010036 17 303 9.7 11.3 0.00 0.00 0.00 67 1016.5
20260506004021 17 292 8.0 11.3 0.00 0.00 0.00 67 1016.4
20260506003126 17 313 6.4 9.7 0.00 0.00 0.00 66 1016.5
20260506001141 17 284 9.7 14.5 0.00 0.00 0.00 66 1016.1
20260505235638 17 315 8.0 16.1 0.00 0.00 0.00 66 1016.1
20260505233729 18 285 11.3 16.1 0.00 0.00 0.00 65 1016.1
20260505231627 18 312 4.8 14.5 0.00 0.00 0.00 66 1016.0
20260505225629 18 302 4.8 11.3 0.00 0.00 0.00 66 1016.2
20260505223645 18 347 1.6 3.2 0.00 0.00 0.00 65 1016.2
20260505221621 18 350 4.8 9.7 0.00 0.00 0.00 66 1016.3
20260505220646 18 307 6.4 11.3 0.00 0.00 0.00 66 1016.4
20260505214640 18 315 3.2 9.7 0.00 0.00 0.00 66 1016.6
20260505213827 18 308 4.8 11.3 0.00 0.00 0.00 66 1016.7